• In Deutschland
  • Länderverzeichnis
  • Für 7 Tage
  • Wassertemperatur
  • Satellitenkarten
  • Wetterkarte
  • Widgets
  • user-avatar
    Anmelden

    Stündliche Wetter Berat

    Heute, 19 November, Sonntag

    Zeit Temperatur Niederschläge Wind Luftdruck Luftfeuchtigkeit
    00:00 +13°C° 0,1 mm 2 m/S 741 mmHg 83%
    01:00 +13°C° 0 mm 2 m/S 741 mmHg 87%
    02:00 +13°C° 0,1 mm 2 m/S 741 mmHg 87%
    03:00 +13°C° 0,1 mm 1 m/S 741 mmHg 87%
    04:00 +12°C° 0,1 mm 1 m/S 741 mmHg 88%
    05:00 +12°C° 0 mm 1 m/S 741 mmHg 88%
    06:00 +12°C° 0 mm 1 m/S 741 mmHg 88%
    07:00 +12°C° 0 mm 1 m/S 741 mmHg 87%
    08:00 +13°C° 0 mm 1 m/S 741 mmHg 81%
    09:00 +14°C° 0 mm 1 m/S 741 mmHg 76%
    10:00 +15°C° 0 mm 1 m/S 741 mmHg 70%
    11:00 +16°C° 0,1 mm 2 m/S 741 mmHg 69%
    12:00 +16°C° 0,1 mm 2 m/S 741 mmHg 67%
    13:00 +16°C° 0 mm 3 m/S 740 mmHg 66%
    14:00 +14°C° 0,3 mm 3 m/S 740 mmHg 72%
    15:00 +14°C° 0,3 mm 3 m/S 740 mmHg 77%
    16:00 +14°C° 0,3 mm 2 m/S 740 mmHg 82%
    17:00 +13°C° 0,3 mm 2 m/S 740 mmHg 85%
    18:00 +13°C° 0,3 mm 2 m/S 740 mmHg 87%
    19:00 +12°C° 0,3 mm 2 m/S 740 mmHg 89%
    20:00 +11°C° 0,3 mm 3 m/S 741 mmHg 89%
    21:00 +11°C° 0,3 mm 3 m/S 741 mmHg 89%
    22:00 +11°C° 0,3 mm 3 m/S 741 mmHg 89%
    23:00 +10°C° 0,5 mm 3 m/S 741 mmHg 90%

    Morgen, 20 November, Montag

    Zeit Temperatur Niederschläge Wind Luftdruck Luftfeuchtigkeit
    00:00 +10°C° 0,5 mm 3 m/S 741 mmHg 91%
    01:00 +9°C° 0,5 mm 3 m/S 741 mmHg 92%
    02:00 +9°C° 1 mm 3 m/S 741 mmHg 91%
    03:00 +8°C° 1 mm 4 m/S 741 mmHg 90%
    04:00 +8°C° 1 mm 4 m/S 741 mmHg 89%
    05:00 +8°C° 0,8 mm 4 m/S 742 mmHg 89%
    06:00 +7°C° 0,8 mm 4 m/S 742 mmHg 88%
    07:00 +7°C° 0,8 mm 4 m/S 742 mmHg 88%
    08:00 +8°C° 0,2 mm 4 m/S 743 mmHg 82%
    09:00 +8°C° 0,2 mm 4 m/S 743 mmHg 76%
    10:00 +9°C° 0,2 mm 5 m/S 744 mmHg 70%
    11:00 +9°C° 0,1 mm 5 m/S 744 mmHg 66%
    12:00 +9°C° 0,1 mm 5 m/S 745 mmHg 62%
    13:00 +10°C° 0,1 mm 5 m/S 745 mmHg 58%
    14:00 +10°C° 0 mm 4 m/S 745 mmHg 61%
    15:00 +8°C° 0 mm 4 m/S 746 mmHg 64%
    16:00 +8°C° 0 mm 4 m/S 746 mmHg 66%
    17:00 +8°C° 0 mm 3 m/S 746 mmHg 68%
    18:00 +7°C° 0 mm 3 m/S 747 mmHg 71%
    19:00 +6°C° 0 mm 2 m/S 747 mmHg 73%
    20:00 +6°C° 0 mm 2 m/S 748 mmHg 73%
    21:00 +5°C° 0 mm 2 m/S 748 mmHg 73%
    22:00 +5°C° 0 mm 2 m/S 749 mmHg 73%
    23:00 +5°C° 0 mm 2 m/S 749 mmHg 72%

    übermorgen, 21 November, Dienstag

    Zeit Temperatur Niederschläge Wind Luftdruck Luftfeuchtigkeit
    00:00 +6°C° 0 mm 1 m/S 749 mmHg 72%
    01:00 +6°C° 0 mm 1 m/S 749 mmHg 71%
    02:00 +6°C° 0 mm 1 m/S 749 mmHg 69%
    03:00 +6°C° 0 mm 1 m/S 749 mmHg 68%
    04:00 +6°C° 0 mm 1 m/S 749 mmHg 66%
    05:00 +6°C° 0 mm 1 m/S 749 mmHg 64%
    06:00 +6°C° 0 mm 1 m/S 749 mmHg 61%
    07:00 +6°C° 0 mm 1 m/S 749 mmHg 59%
    08:00 +8°C° 0 mm 1 m/S 749 mmHg 53%
    09:00 +10°C° 0 mm 1 m/S 749 mmHg 47%
    10:00 +11°C° 0 mm 1 m/S 749 mmHg 41%
    11:00 +12°C° 0 mm 1 m/S 749 mmHg 40%
    12:00 +13°C° 0 mm 2 m/S 749 mmHg 39%
    13:00 +13°C° 0 mm 2 m/S 748 mmHg 39%
    14:00 +12°C° 0 mm 2 m/S 748 mmHg 44%
    15:00 +11°C° 0 mm 1 m/S 748 mmHg 49%
    16:00 +10°C° 0 mm 1 m/S 748 mmHg 54%
    17:00 +9°C° 0 mm 1 m/S 748 mmHg 54%
    18:00 +9°C° 0 mm 1 m/S 748 mmHg 55%
    19:00 +8°C° 0 mm 1 m/S 749 mmHg 55%
    20:00 +8°C° 0 mm 1 m/S 749 mmHg 54%
    21:00 +8°C° 0 mm 1 m/S 749 mmHg 54%
    22:00 +8°C° 0 mm 1 m/S 749 mmHg 53%
    23:00 +8°C° 0 mm 1 m/S 749 mmHg 53%

    22 November, Mittwoch

    Zeit Temperatur Niederschläge Wind Luftdruck Luftfeuchtigkeit
    00:00 +7°C° 0 mm 1 m/S 749 mmHg 53%
    01:00 +7°C° 0 mm 1 m/S 749 mmHg 53%
    02:00 +7°C° 0 mm 1 m/S 749 mmHg 54%
    03:00 +7°C° 0 mm 1 m/S 749 mmHg 54%
    04:00 +7°C° 0 mm 1 m/S 748 mmHg 54%
    05:00 +7°C° 0 mm 1 m/S 749 mmHg 56%
    06:00 +8°C° 0 mm 1 m/S 749 mmHg 58%
    07:00 +8°C° 0 mm 1 m/S 749 mmHg 59%
    08:00 +10°C° 0 mm 1 m/S 749 mmHg 57%
    09:00 +12°C° 0 mm 1 m/S 749 mmHg 54%
    10:00 +14°C° 0 mm 1 m/S 749 mmHg 52%
    11:00 +14°C° 0 mm 1 m/S 749 mmHg 52%
    12:00 +15°C° 0 mm 2 m/S 749 mmHg 52%
    13:00 +16°C° 0 mm 2 m/S 748 mmHg 52%
    14:00 +14°C° 0 mm 2 m/S 748 mmHg 59%
    15:00 +13°C° 0 mm 2 m/S 748 mmHg 65%
    16:00 +12°C° 0 mm 2 m/S 748 mmHg 72%
    17:00 +10°C° 0 mm 2 m/S 749 mmHg 74%
    18:00 +11°C° 0 mm 1 m/S 749 mmHg 76%
    19:00 +10°C° 0 mm 1 m/S 749 mmHg 77%
    20:00 +10°C° 0 mm 1 m/S 749 mmHg 76%
    21:00 +10°C° 0 mm 1 m/S 750 mmHg 75%
    22:00 +10°C° 0 mm 1 m/S 750 mmHg 73%
    23:00 +10°C° 0 mm 1 m/S 750 mmHg 72%

    23 November, Donnerstag

    Zeit Temperatur Niederschläge Wind Luftdruck Luftfeuchtigkeit
    00:00 +10°C° 0 mm 1 m/S 750 mmHg 71%
    01:00 +10°C° 0 mm 1 m/S 750 mmHg 69%
    02:00 +10°C° 0 mm 1 m/S 750 mmHg 68%
    03:00 +10°C° 0 mm 1 m/S 750 mmHg 67%
    04:00 +10°C° 0 mm 1 m/S 750 mmHg 66%
    05:00 +10°C° 0 mm 1 m/S 750 mmHg 65%
    06:00 +10°C° 0 mm 1 m/S 750 mmHg 64%
    07:00 +10°C° 0 mm 1 m/S 750 mmHg 63%
    08:00 +12°C° 0 mm 1 m/S 751 mmHg 58%
    09:00 +14°C° 0 mm 1 m/S 751 mmHg 52%
    10:00 +16°C° 0 mm 1 m/S 751 mmHg 47%
    11:00 +18°C° 0 mm 1 m/S 751 mmHg 46%
    12:00 +19°C° 0 mm 1 m/S 751 mmHg 45%
    13:00 +19°C° 0 mm 2 m/S 750 mmHg 45%
    14:00 +17°C° 0 mm 2 m/S 750 mmHg 52%
    15:00 +16°C° 0 mm 2 m/S 750 mmHg 59%
    16:00 +14°C° 0 mm 2 m/S 750 mmHg 66%
    17:00 +14°C° 0 mm 1 m/S 751 mmHg 68%
    18:00 +13°C° 0 mm 1 m/S 751 mmHg 70%
    19:00 +12°C° 0 mm 1 m/S 751 mmHg 71%
    20:00 +12°C° 0 mm 1 m/S 751 mmHg 71%
    21:00 +12°C° 0 mm 1 m/S 752 mmHg 70%
    22:00 +12°C° 0 mm 1 m/S 752 mmHg 69%
    23:00 +12°C° 0 mm 1 m/S 752 mmHg 69%

    24 November, Freitag

    Zeit Temperatur Niederschläge Wind Luftdruck Luftfeuchtigkeit
    00:00 +11°C° 0 mm 1 m/S 752 mmHg 69%
    01:00 +11°C° 0 mm 1 m/S 752 mmHg 69%
    02:00 +11°C° 0 mm 1 m/S 751 mmHg 68%
    03:00 +11°C° 0 mm 1 m/S 751 mmHg 68%
    04:00 +11°C° 0 mm 1 m/S 751 mmHg 67%
    05:00 +11°C° 0 mm 1 m/S 751 mmHg 67%
    06:00 +11°C° 0 mm 1 m/S 751 mmHg 66%
    07:00 +10°C° 0 mm 1 m/S 752 mmHg 65%
    08:00 +13°C° 0 mm 1 m/S 752 mmHg 59%
    09:00 +15°C° 0 mm 1 m/S 752 mmHg 52%
    10:00 +16°C° 0 mm 0 m/S 752 mmHg 46%
    11:00 +18°C° 0 mm 1 m/S 751 mmHg 45%
    12:00 +19°C° 0 mm 1 m/S 751 mmHg 44%
    13:00 +18°C° 0 mm 2 m/S 751 mmHg 43%
    14:00 +17°C° 0 mm 2 m/S 751 mmHg 49%
    15:00 +16°C° 0 mm 2 m/S 751 mmHg 56%
    16:00 +14°C° 0 mm 2 m/S 751 mmHg 63%
    17:00 +13°C° 0 mm 1 m/S 751 mmHg 65%
    18:00 +13°C° 0 mm 1 m/S 751 mmHg 67%
    19:00 +12°C° 0 mm 1 m/S 751 mmHg 69%
    20:00 +11°C° 0 mm 1 m/S 751 mmHg 68%
    21:00 +11°C° 0 mm 1 m/S 752 mmHg 66%
    22:00 +11°C° 0 mm 1 m/S 752 mmHg 65%
    23:00 +11°C° 0 mm 1 m/S 752 mmHg 63%
    Mehr zeigen